Miscellaneous Local Product
Issued by NWS Hastings, NE

Home | Current Version | Previous Version | Graphics & Text | Print | Product List | Glossary On
Versions: 1 2 3 4 5 6 7 8 9 10 11 12 13 14 15 16 17 18 19 20 21 22 23 24 25 26 27 28 29 30 31 32 33 34 35 36 37 38 39 40 41 42 43 44 45 46 47 48 49 50
000
AXUS43 KGID 230002
MISGRI

GID CWA HOURLY WEATHER ROUNDUP
NATIONAL WEATHER SERVICE HASTINGS NE
600 PM CST THU FEB 22 2018

NOTE: "FAIR" INDICATES FEW OR NO CLOUDS BELOW 12,000 FEET WITH NO
SIGNIFICANT WEATHER AND/OR OBSTRUCTIONS TO VISIBILITY.

...SOUTH CENTRAL NEBRASKA...

CITY           SKY/WX    TMP DP  RH WIND       PRES   REMARKS
GRAND ISLAND   CLOUDY    26  23  88 CALM      30.14F FOG
KEARNEY        CLOUDY    25  23  92 S6        30.13S WCI  18
HASTINGS       CLOUDY    26  23  88 CALM      30.13F FOG
ORD            CLOUDY    23  20  88 SW3       30.12F FOG
YORK           CLOUDY    27  27 100 CALM      30.15F FOG
AURORA         LGT SNOW  27  25  93 CALM      30.14F VSB 3/4
LEXINGTON      CLOUDY    26  21  81 SW7       30.11S WCI  19
HOLDREGE       CLOUDY    25  25 100 SW5       30.11F FOG     WCI  19
HEBRON         MIX PCPN  30  29  95 CALM      30.16S

...NEBRASKA PANHANDLE...

CITY           SKY/WX    TMP DP  RH WIND       PRES   REMARKS
CHADRON        MOCLDY    20  13  74 NW3       30.03S
ALLIANCE       CLOUDY    21  16  81 S7        29.99S WCI  12
SCOTTSBLUFF    PTCLDY    24  18  77 S5        30.00S WCI  18
SIDNEY         MOCLDY    24  15  68 SW6       30.00R WCI  17

...WESTERN AND NORTH CENTRAL NEBRASKA...

CITY           SKY/WX    TMP DP  RH WIND       PRES   REMARKS
VALENTINE      CLOUDY    24  18  77 S6        30.08F WCI  17
AINSWORTH      CLOUDY    22  21  96 S5        30.09S FOG     WCI  15
ONEILL         LGT SNOW  22  21  98 SE3       30.13S VSB 1
BROKEN BOW     CLOUDY    23  19  85 S3        30.10R
IMPERIAL       CLOUDY    23  18  81 E6        30.04F WCI  16
NORTH PLATTE   CLOUDY    24  16  71 W6        30.10R WCI  17
MCCOOK         CLOUDY    24  23  96 CALM      30.10S FOG

...EASTERN NEBRASKA...

CITY           SKY/WX    TMP DP  RH WIND       PRES   REMARKS
NORFOLK        LGT SNOW  25  23  92 S7        30.15R VSB 1   WCI  17
SO SIOUX CITY  LGT SNOW  27  25  92 SE7       30.19F FOG     WCI  19
TEKAMAH        CLOUDY    29  27  92 SE7       30.18F WCI  22
COLUMBUS       LGT SNOW  26  23  88 SW3       30.18R VSB 3/4
ALBION         SNOW      25  23  93 SW3       30.15S VSB 1/2
OMAHA EPPLEY   CLOUDY    31  28  89 SE5       30.18F WCI  26
OFFUTT AFB     CLOUDY    31  29  93 E3        30.17F
MILLARD        CLOUDY    32  29  90 SE5       30.17F WCI  27
LINCOLN        CLOUDY    29  28  96 E3        30.17F FOG
NEBRASKA CITY  MIX PCPN  31  31 100 SE5       30.15F WCI  26
BEATRICE       LGT SNOW  32  31  96 S3        30.17R
FALLS CITY     MIX PCPN  31  29  92 SE7       30.18S FOG     WCI  24

...NORTHERN KANSAS...

CITY           SKY/WX    TMP DP  RH WIND       PRES   REMARKS
GOODLAND       CLEAR     29  19  66 E10       29.99R WCI  20
HILL CITY      CLOUDY    26  25  96 CALM      30.12R FOG
NORTON         CLOUDY    25  21  86 CALM      30.11R FOG
PHILLIPSBURG   CLOUDY    28  28 100 CALM      30.14R FOG
SMITH CENTER   CLOUDY    27  25  93 CALM      30.15S
BELOIT         CLOUDY    28  28 100 CALM      30.16S FOG
HAYS           MIX PCPN  29  27  92 S3        30.12S VSB 1
RUSSELL        CLOUDY    31  30  96 S6        30.11S FOG     WCI  25
CONCORDIA      FRZ RAIN  30  29  96 S6        30.17R FOG     WCI  24
SALINA         CLOUDY    32  31  96 SE6       30.17F FOG     WCI  26
TOPEKA         CLOUDY    33  33 100 CALM      30.18F FOG



USA.gov is the U.S. government's official web portal to all federal, state and local government web resources and services.